Weather observations for the past three days for
Greenwood Municipal Airport
Imperial (Metric)
Date Time (edt) Wind (mph) Vis. (mi.) Weather Sky Cond. Temperature (ºF) Relative Humidity Wind Chill (°F) Heat Index (°F) Pressure Precipitation (in)
Air Dwpt 6 hour altimeter (in) sea level (mb) 1 hr 3 hr 6 hr
Max. Min.
16 16:35 W 13 G 18 10.00 Overcast OVC038 81.9 66.2 59% 84 29.92 0.0
16 16:15 W 15 G 25 10.00 Mostly Cloudy BKN039 BKN044 BKN065 82.2 65.5 57% 84 29.93 0.0
16 15:55 W 13 G 21 10.00 Mostly Cloudy SCT039 SCT065 BKN070 83.3 65.5 55% 85 29.93 0.0
16 15:35 W 15 G 24 10.00 Mostly Cloudy SCT041 BKN065 82.8 65.7 56% 85 29.92 0.0
16 15:15 W 12 G 22 10.00 Partly Cloudy SCT043 SCT065 84.6 65.8 54% 87 29.92 0.0
16 14:55 W 15 G 23 10.00 Fair CLR 85.1 64.9 51% 87 29.9 0.0
16 14:35 W 13 G 25 10.00 Fair CLR 85.5 64.4 49% 87 29.9 0.0
16 14:15 W 15 G 22 10.00 Fair CLR 85.1 64.6 50% 87 29.89 0.0
16 13:55 W 14 G 22 10.00 Fair CLR 85.1 66 85.6 70.5 53% 87 29.89 0.0
16 13:35 W 12 G 21 10.00 Partly Cloudy SCT085 84.6 66.6 55% 87 29.89 0.0
16 13:15 W 16 G 20 10.00 Partly Cloudy SCT085 84.9 64.4 50% 86 29.89 0.0
16 12:55 W 12 G 20 10.00 Fair CLR 84.2 65.7 54% 86 29.88 0.0
16 12:35 W 13 G 17 10.00 Fair CLR 83.3 66.4 57% 86 29.87 0.0
16 12:15 W 14 10.00 Fair CLR 82.8 64.4 54% 84 29.87 0.0
16 11:55 W 13 G 21 10.00 Fair CLR 82.4 66 58% 85 29.87 0.0
16 11:35 W 13 G 25 10.00 Fair CLR 80.6 64.6 58% 82 29.88 0.0
16 11:15 W 14 G 22 10.00 Fair CLR 80.1 64.9 60% 82 29.87 0.0
16 10:55 SW 14 G 18 10.00 Fair CLR 78.8 66 65% 81 29.87 0.0
16 10:35 SW 9 G 17 10.00 Fair CLR 75.7 66 72% 77 29.88 0.0
16 10:15 SW 12 G 18 10.00 Fair CLR 74.3 65.5 74% 29.89 0.0
16 09:55 SW 10 10.00 Fair CLR 73.6 65.1 75% 29.89 0.0
16 09:35 SW 10 10.00 Fair CLR 72.7 64.8 76% 29.87 0.0
16 09:15 S 7 10.00 Fair CLR 71.2 64.4 79% 29.87 0.0
15 20:35 S 6 10.00 Fair CLR 81.5 70.5 69% 85 29.85 0.0
15 20:15 S 9 10.00 Partly Cloudy SCT036 SCT048 82.6 68.7 63% 86 29.85 0.0
15 19:55 S 12 10.00 Mostly Cloudy SCT036 BKN042 BKN048 82 63.1 91.4 79.7 53% 83 29.87 0.0
15 19:35 S 8 10.00 Overcast SCT031 OVC040 79.7 70.2 73% 83 29.88 0.0
15 19:15 SE 6 4.00 Mostly Cloudy SCT034 SCT043 BKN060 83.7 73.8 72% 90 29.88 0.0
15 18:55 S 10 10.00 Partly Cloudy SCT036 SCT050 SCT065 84.9 73.6 69% 92 29.87 0.0
15 18:35 S 3 10.00 Overcast SCT036 BKN050 OVC065 83.8 72 68% 89 29.87 0.0
15 18:15 SW 10 G 17 10.00 Mostly Cloudy SCT035 BKN042 BKN065 88.5 73.4 61% 97 29.85 0.0
15 17:55 SW 12 G 18 10.00 Mostly Cloudy BKN035 BKN042 90.9 74.3 58% 101 29.87 0.0
15 17:35 SW 9 10.00 Mostly Cloudy BKN035 BKN042 BKN070 91.4 74.3 57% 101 29.87 0.0
15 17:15 SW 13 G 20 10.00 Mostly Cloudy BKN035 BKN070 BKN120 90.9 73.9 58% 100 29.87 0.0
15 16:55 SW 10 10.00 Mostly Cloudy SCT035 BKN041 BKN070 90.3 75.4 62% 101 29.88 0.0
15 16:35 SW 9 G 17 10.00 Mostly Cloudy SCT035 BKN043 BKN120 89.2 72.7 58% 97 29.88 0.0
15 16:15 SW 12 G 22 10.00 Partly Cloudy SCT035 SCT075 SCT090 91.4 73.2 55% 100 29.88 0.0
15 15:55 W 14 G 18 10.00 Partly Cloudy SCT070 SCT080 90.7 72.7 56% 99 29.89 0.0
15 15:35 SW 14 G 20 10.00 Mostly Cloudy BKN060 BKN080 90.5 72.5 56% 98 29.9 0.0
15 15:15 SW 13 G 22 10.00 Partly Cloudy SCT070 90.7 73.4 57% 100 29.9 0.0
15 14:55 SW 15 G 18 10.00 Partly Cloudy SCT036 SCT070 90.5 72.7 56% 99 29.92 0.0
15 14:35 W 15 G 22 10.00 Partly Cloudy SCT070 89.6 71.6 55% 96 29.93 0.0
15 14:15 W 9 10.00 Partly Cloudy SCT033 SCT060 SCT070 89.6 72.3 57% 97 29.94 0.0
15 13:55 SW 9 10.00 Mostly Cloudy SCT033 BKN060 BKN070 89.2 72.7 89.2 72.7 58% 97 29.94 0.0
15 13:35 W 13 10.00 Partly Cloudy SCT032 SCT060 SCT070 88 72.1 59% 95 29.95 0.0
15 13:15 SW 8 10.00 Partly Cloudy SCT060 SCT070 88.7 72.9 60% 96 29.94 0.0
15 12:55 W 7 10.00 Mostly Cloudy SCT060 BKN070 BKN090 87.6 71.6 59% 94 29.95 0.0
15 12:35 SW 6 G 9 10.00 Overcast OVC065 87.1 71.2 59% 93 29.95 0.0
15 12:15 SW 13 G 17 10.00 Overcast OVC060 86.4 70.9 60% 92 29.95 0.0
15 11:55 W 13 G 18 10.00 Mostly Cloudy BKN060 86.9 70.7 59% 92 29.95 0.0
15 11:35 W 13 G 16 10.00 NULL NULL 86.2 70.7 60% 91 29.95 0.0
15 11:15 SW 9 10.00 Fair CLR 85.8 70.5 60% 91 0 0.0
15 10:55 SW 10 G 16 10.00 Fair CLR 84 69.4 62% 88 0 0.0
15 10:35 SW 8 10.00 Fair CLR 82.4 67.6 61% 85 0 0.0
15 09:35 SW 8 10.00 NULL NULL 78.4 63.7 61% 80 0 0.0
15 09:15 W 8 10.00 NULL NULL 77 63.3 63% 79 0 0.0
15 08:55 W 6 10.00 NULL NULL 75.9 63.1 65% 78 0 0.0
15 08:35 SW 3 10.00 NULL NULL 75.7 63.5 66% 78 0 0.0
15 08:15 Calm 10.00 NULL NULL 74.1 62.8 68% 0 0.0
15 07:55 SE 6 10.00 NULL NULL 72.5 63 72% 0 0.0
15 07:35 E 3 10.00 NULL NULL 0 0 0% 0 0.0
14 19:35 SE 6 10.00 NULL NULL 83.1 73.4 73% 89 0 0.0
14 19:15 S 5 10.00 NULL NULL 82.9 73.2 73% 89 0 0.0
14 18:55 S 6 10.00 NULL NULL 83.7 72.7 70% 90 0 0.0
14 18:35 SE 8 10.00 NULL NULL 84.9 72.5 66% 91 0 0.0
14 18:15 SE 6 10.00 NULL NULL 85.3 73 67% 92 0 0.0
14 17:55 S 7 10.00 NULL NULL 86 73 65% 93 0 0.0
14 17:35 SE 5 10.00 NULL NULL 85.6 72.9 66% 92 0 0.0
14 17:15 E 3 10.00 NULL NULL 85.1 73.6 69% 92 0 0.0
14 16:55 Calm 10.00 NULL NULL 84.9 72 65% 91 0 0.0
14 16:35 Calm 10.00 NULL NULL 83.3 71.8 68% 89 0 0.0
14 16:15 Calm 10.00 NULL NULL 81 71.8 74% 85 0 0.0
14 15:55 Calm 10.00 NULL NULL 77.5 71.4 82% 79 0 0.0
14 15:35 Calm 10.00 NULL NULL 0 0 0% 0 0.0
14 14:15 W 9 10.00 NULL NULL 86.4 71.2 61% 92 0 0.0
14 13:55 SW 9 G 16 10.00 NULL NULL 88.9 71.2 88.9 74.8 56% 95 0 0.0
14 13:35 W 12 G 16 10.00 NULL NULL 88.3 70.5 56% 94 0 0.0
14 13:15 W 10 G 16 10.00 NULL NULL 88.7 71.2 56% 95 0 0.0
14 12:55 W 12 10.00 NULL NULL 88.3 71.1 57% 94 0 0.0
14 12:35 W 8 10.00 NULL NULL 87.8 72.1 60% 95 0 0.0
14 12:15 SW 12 G 17 10.00 NULL NULL 87.1 70.7 58% 93 0 0.0
14 11:55 SW 12 10.00 NULL NULL 86 71.1 61% 92 0 0.0
14 11:35 SW 8 10.00 NULL NULL 85.8 71.8 63% 92 0 0.0
14 11:15 SW 12 10.00 NULL NULL 85.1 70.7 62% 90 0 0.0
14 10:55 W 9 G 17 10.00 NULL NULL 84.4 70.9 64% 89 0 0.0
14 10:35 SW 10 10.00 NULL NULL 83.8 70.9 65% 89 0 0.0
14 10:15 SW 7 10.00 NULL NULL 82.4 70.9 68% 87 0 0.0
14 09:55 W 10 G 16 10.00 NULL NULL 81.9 71.1 70% 86 0 0.0
14 09:35 W 7 10.00 NULL NULL 80.8 70.7 72% 84 0 0.0
14 09:15 W 7 10.00 NULL NULL 79.7 70.7 74% 83 0 0.0
14 08:55 SW 6 10.00 NULL NULL 77.9 70.3 78% 80 0 0.0
14 08:35 SW 5 10.00 NULL NULL 76.1 69.6 80% 77 0 0.0
14 08:15 S 5 10.00 NULL NULL 75.4 69.3 81% 76 0 0.0
14 07:55 S 6 10.00 NULL NULL 74.8 69.1 82% 0 0.0
13 20:35 SW 5 10.00 NULL NULL 85.1 66.4 54% 88 0 0.0
13 20:15 SW 3 10.00 NULL NULL 85.6 66.9 54% 88 0 0.0
13 19:55 SW 5 10.00 NULL NULL 86 67.8 89.2 86 55% 89 0 0.0
13 19:35 SW 7 10.00 NULL NULL 86.9 68 53% 90 0 0.0
13 19:15 W 7 10.00 NULL NULL 87.1 66.7 51% 90 0 0.0
13 18:55 W 7 10.00 NULL NULL 87.4 65.7 48% 90 0 0.0
13 18:35 SW 6 10.00 NULL NULL 88.3 65.7 47% 91 0 0.0
13 18:15 W 6 10.00 NULL NULL 87.3 66.4 50% 90 0 0.0
13 17:55 SW 7 10.00 NULL NULL 87.8 65.7 48% 90 0 0.0
13 17:35 SW 6 10.00 NULL NULL 88.9 66 47% 91 0 0.0
13 17:15 SW 6 10.00 NULL NULL 87.8 65.8 48% 90 0 0.0
13 16:55 W 5 10.00 NULL NULL 88 66.4 49% 91 0 0.0
Date Time (edt) Wind (mph) Vis. (mi.) Weather Sky Cond. Air Dwpt Max. Min. Relative Humidity Wind Chill (°F) Heat Index (°F) altimeter (in) sea level (mb) 1 hr 3 hr 6 hr
6 hour
Temperature (ºF) Pressure Precipitation (in)